Flag for USA

Past Weather in 39°49'13"N, 104°59'13"W, USA — Yesterday and Last 2 Weeks

Now
64 °F

Passing clouds.


Feels Like: 64 °F
Forecast: 92 / 62 °F
Wind: 6 mph from West

Location: Buckley Air Force Base

Current Time: Jul 9, 2020 at 8:08:25 am

Latest Report: Jul 9, 2020 at 6:58 am


Visibility: 10 mi

Pressure: 29.86 "Hg

Humidity: 40%

Dew Point: 39 °F

Location of 39°49'13"N, 104°59'13"WLocation

Past Weather in 39°49'13"N, 104°59'13"W — Graph

°F

39°49'13"N, 104°59'13"W Temperature Yesterday

Maximum temperature yesterday: 94 °F (at 4:58 pm)
Minimum temperature yesterday: 60 °F (at 4:58 am)
Average temperature yesterday: 79 °F

High & Low Weather Summary for the Past Weeks

 TemperatureHumidityPressure
High94 °F (Jul 7, 12:58 pm)90% (Jun 26, 4:58 am)30.20 "Hg (Jun 26, 4:58 am)
Low52 °F (Jul 1, 3:58 am)7% (Jul 2, 4:58 pm)29.41 "Hg (Jun 29, 1:58 am)
Average74 °F38%29.79 "Hg
* Reported Jun 24 6:58 am — Jul 9 6:58 am, 39°49'13"N, 104°59'13"W. Weather by CustomWeather, © 2020

Note: Actual official high and low records may vary slightly from our data, if they occured in-between our weather recording intervals... More about our weather records

39°49'13"N, 104°59'13"W Weather History for the Previous 24 Hours

Scroll right to see more
 ConditionsComfort  
Time TempWeatherWind HumidityBarometerVisibility
6:58 am
Thu, Jul 9
64 °FPassing clouds.6 mph40%29.86 "Hg10 mi
5:58 am61 °FPassing clouds.6 mph43%29.85 "Hg10 mi
4:58 am62 °FPassing clouds.8 mph43%29.81 "Hg10 mi
3:58 am69 °FPassing clouds.3 mph28%29.78 "Hg10 mi
2:58 am69 °FPassing clouds.12 mph31%29.75 "Hg10 mi
1:58 am73 °FPassing clouds.12 mph28%29.73 "Hg10 mi
12:58 am74 °FPassing clouds.7 mph29%29.73 "Hg10 mi
11:58 pm
Wed, Jul 8
79 °FPassing clouds.7 mph17%29.72 "Hg10 mi
10:58 pm83 °FPassing clouds.8 mph13%29.71 "Hg10 mi
9:58 pm81 °FPartly cloudy.12 mph16%29.73 "Hg10 mi
8:58 pm80 °FPartly cloudy.9 mph17%29.70 "Hg10 mi
7:58 pm84 °FPartly sunny.5 mph15%29.69 "Hg10 mi
6:58 pm91 °FBroken clouds.16 mph10%29.67 "Hg10 mi
5:58 pm88 °FBroken clouds.8 mph12%29.69 "Hg10 mi
4:58 pm94 °FBroken clouds.5 mph8%29.67 "Hg10 mi
3:58 pm93 °FScattered clouds.7 mph8%29.68 "Hg10 mi
2:58 pm92 °FPassing clouds.9 mph8%29.69 "Hg10 mi
1:58 pm92 °FPassing clouds.8 mph8%29.69 "Hg10 mi
12:58 pm90 °FPassing clouds.5 mph9%29.72 "Hg10 mi
11:58 am87 °FPassing clouds.6 mph14%29.73 "Hg10 mi
10:58 am83 °FPassing clouds.5 mph18%29.75 "Hg10 mi
9:58 am77 °FSunny.No wind25%29.76 "Hg10 mi
8:58 am73 °FSunny.5 mph34%29.77 "Hg10 mi
Weather by CustomWeather, © 2020

See weather overview